Weather in zheleznodorozhnaya stantsiya Terebutinets

Russia / Novgorod Oblast     59°01′17″N   33°39′02″E
temp.,
°C
wind,
m/s
gust,
m/s
humid.,
%
clouds,
%
prec.,
mm/h
press.,
hPa
HPBL,
m
2 december, thu
thu200:00−10w41194100 0.1 992591
03:00−10w41195100 0.3 994527
06:00−10w3997100 0.1 995356
09:00−12sw2798100 0.2 996166
12:00−9sw2495100 0.1 997156
15:00−8se129699 0.1 99680
18:00−8ese2694100 0.0 995193
21:00−7ese2796100 0.1 994245
3 december, fri
fri300:00−7e3695100 0.4 994236
03:00−7e379691 0.6 994233
06:00−7e3895100 0.1 994246
09:00−7e3896100 0.4 995228
12:00−5ese3796100 0.9 995193
15:00−1sse3997100 2.0 994690
18:00−2s41096100 0.8 994622
21:00−2s3996100 1.4 994538
4 december, sat
sat400:00−3sse399695 0.8 994534
03:00−3sse3797100 1.4 993446
06:00−4sse1298100 0.6 99360
09:00−5w279880 0.9 995201
12:00−4wnw379599 0.4 998407
15:00−7wnw389596 0.6 1002392
18:00−8wnw379584 0.3 1006373
21:00−13wnw13100100 0.3 100944
5 december, sun
sun500:00−15wnw11100100 0.1 101211
03:00−16nnw11100100 0.1 10149
06:00−18nne1110087 0.0 10169
09:00−19ene1110087 0.0 101824
12:00−15e239431 0.0 1020112
15:00−15e259628 0.0 1021144
18:00−16e399664 0.0 1024212
21:00−17e4119536 0.0 1025229
6 december, mon
mon600:00−17e4129463 0.0 1026262
03:00−17e41395100 0.0 1027280
06:00−15ese51494100 0.0 1026343
09:00−14ese51491100 0.0 1027376
12:00−13ese51490100 0.0 1027378
15:00−12ese51391100 0.1 1025389
18:00−12ese51393100 0.3 1024382
21:00−11ese51393100 1.0 1022454